Regional Weather Roundup
Issued by NWS

Home | Current Version | Previous Version | Graphics & Text | Print | Product List | Glossary On
Versions: 1 2 3 4 5 6 7 8 9 10 11 12 13 14 15 16 17 18 19 20 21 22 23 24 25 26 27 28 29 30 31 32 33 34 35 36 37 38 39 40 41 42 43 44 45 46 47 48 49 50
000
ASUS43 KOAX 302010
RWRNE

WEATHER ROUNDUP FOR NEBRASKA
NATIONAL WEATHER SERVICE OMAHA NE
300 PM CDT TUE SEP 30 2014

NOTES: SATELLITE DATA IS BEING USED TO AUGMENT CLOUD COVER ABOVE
       12000 FEET.
       "FAIR" INDICATES FEW OR NO CLOUDS BELOW 12,000 FEET WITH NO
       SIGNIFICANT WEATHER AND/OR OBSTRUCTIONS TO VISIBILITY.

  * THESE STATIONS DO NOT REPORT WEATHER SUCH AS RAIN...SNOW OR FOG.

NEZ001>004-019>022-054>056-302100-
NEBRASKA PANHANDLE

CITY           SKY/WX    TMP DP  RH WIND       PRES   REMARKS
SCOTTSBLUFF    MOSUNNY   70  43  37 W22G30    29.72F
ALLIANCE       PTSUNNY   64  47  53 NW12      29.70F
CHADRON        CLOUDY    65  48  54 W25G33    29.65S
KIMBALL        SUNNY     69  36  29 W24G31    29.76F
SIDNEY         SUNNY     72  37  28 W26G32    29.77F
$$

NEZ057>060-069>072-079>082-302100-
SOUTHWEST NEBRASKA

CITY           SKY/WX    TMP DP  RH WIND       PRES   REMARKS
NORTH PLATTE   MOSUNNY   77  42  28 SW13      29.71F
IMPERIAL       SUNNY     74  40  29 SW14G22   29.76F
LEXINGTON      SUNNY     78  44  30 S10       29.73F
MCCOOK         SUNNY     77  42  28 S8        29.74F
OGALLALA       SUNNY     76  42  29 W18G25    29.73F
$$

NEZ005>010-023>029-035>040-094-302100-
NORTH CENTRAL NEBRASKA

CITY           SKY/WX    TMP DP  RH WIND       PRES   REMARKS
VALENTINE      PTSUNNY   69  45  41 SW29G45   29.61R
AINSWORTH      PTSUNNY   72  43  35 SW25G33   29.64F
BROKEN BOW     MOSUNNY   80  41  24 W20G30    29.71F
O`NEILL        MOSUNNY   78  49  36 S20G29    29.67F
ORD            SUNNY     78  45  30 SW17G31   29.69F
THEDFORD       MOSUNNY   75  44  33 W22G35    29.69F
$$

NEZ041-046>049-061>064-073>077-083>087-302100-
SOUTH CENTRAL NEBRASKA

CITY           SKY/WX    TMP DP  RH WIND       PRES   REMARKS
GRAND ISLAND   MOSUNNY   73  62  68 SE16G25   29.74F
AURORA         CLOUDY    69  61  77 S16       29.75F
HASTINGS       PTSUNNY   72  59  63 S12       29.74F
HEBRON         CLOUDY    65  62  90 SE9       29.78F
HOLDREGE       SUNNY     76  43  30 S7        29.73F
KEARNEY *      SUNNY     77  48  36 W8        29.73F
YORK           CLOUDY    64  63  94 S10       29.77F
$$

NEZ011>018-030>034-042>045-302100-
NORTHEAST NEBRASKA

CITY           SKY/WX    TMP DP  RH WIND       PRES   REMARKS
NORFOLK        PTSUNNY   71  63  75 S24G31    29.73F
ALBION         SUNNY     75  58  54 S15G24    29.72F
BLAIR          HVY RAIN  65  62  91 S5        29.82F
COLUMBUS *     CLOUDY    66  61  82 S16G22    29.77F
FREMONT        RAIN      65  63  93 S6        29.82F
TEKAMAH        RAIN      65  63  93 SE7       29.81F FOG
WAYNE          CLOUDY    66  63  91 S16G24    29.77F
$$

NEZ050>053-065>068-078-088>093-302100-
SOUTHEAST NEBRASKA

CITY           SKY/WX    TMP DP  RH WIND       PRES   REMARKS
LINCOLN        LGT RAIN  66  63  90 S12       29.81F
OMAHA EPPLEY   HVY RAIN  66  63  90 W9        29.82F FOG
BEATRICE       RAIN      65  64  96 S6        29.80F
FALLS CITY     CLOUDY    81  59  47 S13G20    29.78F
NEBRASKA CITY  HVY RAIN  66  65  95 W9        29.82R
PLATTSMOUTH    HVY RAIN  65  63  90 W8        29.82S
$$

NEZ044-045-051>053-067-302100-
OMAHA AREA

CITY           SKY/WX    TMP DP  RH WIND       PRES   REMARKS
OMAHA EPPLEY   HVY RAIN  66  63  90 W9        29.82F FOG
BLAIR          HVY RAIN  65  62  91 S5        29.82F
FREMONT        RAIN      65  63  93 S6        29.82F
MILLARD        HVY RAIN  66  64  92 W3        29.82F
OFFUTT AFB     RAIN      67  67 100 W9        29.82R FOG
PLATTSMOUTH    HVY RAIN  65  63  90 W8        29.82S
WAHOO          RAIN      64  62  90 S3        29.81F
$$



USA.gov is the U.S. government's official web portal to all federal, state and local government web resources and services.